Weather History for Covington, KY

Change the Weather History Date:

Sunday, December 23, 2012

  Actual Average Record
Temperature  
Mean Temperature 38 °F 32 °F  
Max Temperature 50 °F 40 °F 66 °F (1933)
Min Temperature 25 °F 25 °F -12 °F (1989)
Degree Days  
Heating Degree Days 27 33  
Month to date heating degree days 485 691  
Since 1 July heating degree days 1591 1651  
Cooling Degree Days 0 0  
Month to date cooling degree days 0 0  
Year to date cooling degree days 1439 1121  
Moisture  
Dew Point 25 °F    
Average Humidity 64    
Maximum Humidity 81    
Minimum Humidity 46    
Precipitation  
Precipitation 0.00 in 0.12 in 2.77 in (1921)
Month to date precipitation 4.60 2.50  
Year to date precipitation 37.63 41.65  
Snow  
Snow 0.00 in 0.20 in 2.70 in (1935)
Month to date snowfall 0.9 3.2  
Since 1 July snowfall 0.9 4.0  
Snow Depth 0.00 in    
Sea Level Pressure  
Sea Level Pressure 29.97 in    
Wind  
Wind Speed 7 mph (SSW)    
Max Wind Speed 12 mph    
Max Gust Speed 15 mph    
Visibility 10 miles    
Events      
T = Trace of Precipitation, MM = Missing Value Source: NWS Daily Summary

Daily Weather History Graph

Daily Weather History Graph

Search for Another Location

Airport:

Trip Planner

Search our weather history database for the weather conditions in past years. The results will help you decide how hot, cold, wet, or windy it might be!

Date:

Astronomy

Dec. 23, 2012 Rise Set
Actual Time 7:55 AM EST 5:20 PM EST
Civil Twilight 7:25 AM EST 5:51 PM EST
Nautical Twilight 6:51 AM EST 6:24 PM EST
Astronomical Twilight 6:19 AM EST 6:57 PM EST
Moon 2:10 PM EST (12/23) 3:38 AM EST (12/23)
Length of Visible Light 10h 25m
Length of Day
9h 25m
Waxing Gibbous, 81% of the Moon is Illuminated
Dec 23
Waxing Gibbous
Dec 28
Full
Jan 4
Last Quarter
Jan 11
New
Jan 18
First Quarter

Hourly Weather History & Observations

Time (EST) Temp. Windchill Dew Point Humidity Pressure Visibility Wind Dir Wind Speed Gust Speed Precip Events Conditions
12:52 AM 25.0 °F 16.3 °F 19.0 °F 78% 30.08 in 10.0 mi South 8.1 mph - N/A   Clear
1:52 AM 28.0 °F 19.3 °F 19.0 °F 69% 30.04 in 10.0 mi South 9.2 mph - N/A   Clear
2:52 AM 28.9 °F 19.8 °F 19.0 °F 67% 30.02 in 10.0 mi South 10.4 mph - N/A   Clear
3:52 AM 28.9 °F 20.4 °F 19.0 °F 67% 29.99 in 10.0 mi SSW 9.2 mph - N/A   Clear
4:52 AM 28.9 °F 20.4 °F 19.0 °F 67% 29.97 in 10.0 mi SSW 9.2 mph - N/A   Clear
5:52 AM 30.0 °F 21.7 °F 19.0 °F 64% 29.97 in 10.0 mi SSW 9.2 mph - N/A   Clear
6:52 AM 30.0 °F 23.2 °F 19.9 °F 66% 29.97 in 10.0 mi SSW 6.9 mph - N/A   Clear
7:52 AM 28.9 °F 21.9 °F 19.9 °F 69% 29.97 in 10.0 mi SSW 6.9 mph - N/A   Scattered Clouds
8:52 AM 30.0 °F 23.2 °F 21.0 °F 69% 29.98 in 10.0 mi SSW 6.9 mph - N/A   Mostly Cloudy
9:52 AM 36.0 °F 30.3 °F 24.1 °F 62% 29.99 in 10.0 mi SSW 6.9 mph - N/A   Mostly Cloudy
10:52 AM 39.9 °F 33.9 °F 26.1 °F 58% 29.98 in 10.0 mi SSW 9.2 mph - N/A   Scattered Clouds
12:52 PM 46.9 °F - 30.0 °F 52% 29.94 in 10.0 mi West 8.1 mph - N/A   Scattered Clouds
1:52 PM 48.0 °F - 28.9 °F 48% 29.93 in 10.0 mi SW 8.1 mph - N/A   Partly Cloudy
2:52 PM 48.9 °F - 28.9 °F 46% 29.93 in 10.0 mi Variable 5.8 mph - N/A   Scattered Clouds
3:52 PM 48.9 °F - 30.0 °F 48% 29.93 in 10.0 mi WNW 4.6 mph - N/A   Scattered Clouds
4:52 PM 46.9 °F - 28.9 °F 50% 29.95 in 10.0 mi Calm Calm - N/A   Mostly Cloudy
5:52 PM 39.9 °F 35.8 °F 28.9 °F 65% 29.95 in 10.0 mi North 5.8 mph - N/A   Scattered Clouds
6:52 PM 42.1 °F 39.2 °F 28.9 °F 60% 29.96 in 10.0 mi NNE 4.6 mph - N/A   Scattered Clouds
7:52 PM 39.9 °F - 28.0 °F 63% 29.97 in 10.0 mi Calm Calm - N/A   Scattered Clouds
8:52 PM 37.0 °F 33.3 °F 28.0 °F 70% 29.97 in 10.0 mi NNE 4.6 mph - N/A   Mostly Cloudy
9:52 PM 37.9 °F 32.7 °F 28.9 °F 70% 29.97 in 10.0 mi NE 6.9 mph - N/A   Mostly Cloudy
10:52 PM 37.0 °F 31.6 °F 28.9 °F 73% 29.94 in 10.0 mi NE 6.9 mph - N/A   Scattered Clouds
11:52 PM 35.1 °F 31.0 °F 28.0 °F 76% 29.94 in 10.0 mi East 4.6 mph - N/A   Partly Cloudy